User: anonymous   Login
Location: Unspecified
(0.0000°N, 0.0000°E)
Time: 17:06:31
(UTC+00:00)
Language:

N. Korean satellite - Orbit

View from above orbital plane
View from above orbital plane
View from above satellite
View from above satellite

Ground track
Ground track

The orbit data is extracted from the following two-line orbital elements,

1 39026U 12072A   17347.96753348 +.00001567 +00000-0 +62193-4 0  9993
2 39026 097.2161 359.6634 0038146 259.8242 099.8694 15.26186454277348
Epoch (UTC): 13 December 2017 23:13:14
Eccentricity: 0.0038146
inclination: 97.2161°
perigee height: 461 km
apogee height: 513 km
right ascension of ascending node: 359.6634°
argument of perigee: 259.8242°
revolutions per day: 15.26186454
mean anomaly at epoch: 99.8694°
orbit number at epoch: 27734

The dashed part of the orbit path shows where the satellite is in the earth's shadow,  

DLR